Location: Follega
(52.8850°N, 5.7362°E)
Time: 21:02:36
(UTC+00:00)

STARLINK-1236 - Pass Details

Date: 04 October 2020
Orbit: 548 x 551 km, 53.0° (Epoch: 26 October)

Event Time Altitude Azimuth Distance (km) Brightness Sun altitude
Exits shadow 02:58:50 31° 135° (SE) 970 4.9 -25.0°
Drops below altitude 10° 03:01:10 10° 123° (ESE) 1,825 6.6 -24.7°
Sets 03:03:25 0° 119° (ESE) 2,717 7.6 -24.4°
